QPF
0.00 0.00 0.00 0.00 0.00 0.00 0.00 0.00 0.00 0.00 0.00 0.00 0.00 0.00 0.00 0.00 0.00 0.00 0.00 0.00 0.00 0.00 0.01 0.02 0.00 0.02 0.02 0.00 0.00 0.00 0.00 0.00 0.00 0.00 0.00 0.00 0.00 0.00 0.00 0.00 0.00 0.00 0.00
0.00 0.00 0.00 0.00 0.00 0.00 0.00 0.00 0.00 0.00 0.00 0.00 0.00 0.00 0.00 0.00 0.00 0.00 0.01 0.00 0.00 0.00 0.00 0.00 0.00 0.00 0.00 0.00 0.00 0.00 0.00 0.00 0.00 0.00 0.00 0.00 0.00 0.00 0.00 0.00 0.00 0.00 0.00
0.00 0.00 0.00 0.00 0.00 0.00 0.00 0.00 0.00 0.00 0.00 0.00 0.00 0.00 0.01 0.01 0.00 0.03 0.01 0.00 0.00 0.00 0.00 0.00 0.01 0.01 0.00 0.00 0.00 0.00 0.00 0.00 0.00 0.00 0.00 0.00 0.00 0.00 0.00 0.00 0.00 0.00 0.00
0.00 0.00 0.00 0.00 0.00 0.00 0.00 0.00 0.00 0.00 0.00 0.00 0.00 0.00 0.00 0.00 0.00 0.00 0.00 0.00 0.00 0.00 0.00 0.00 0.00 0.00 0.00 0.00 0.00 0.00 0.00 0.00 0.00 0.00 0.00 0.00 0.00 0.00 0.00 0.00 0.00 0.00 0.00
0.00 0.00 0.00 0.00 0.00 0.00 0.00 0.00 0.00 0.00 0.00 0.00 0.00 0.00 0.00 0.00 0.00 0.00 0.00 0.00 0.00 0.00 0.00 0.00 0.00 0.00 0.00 0.00 0.00 0.00 0.00 0.00 0.00 0.00 0.00 0.00 0.00 0.00 0.00 0.00 0.00 0.00 0.00
0.00 0.00 0.00 0.00 0.00 0.00 0.00 0.00 0.00 0.00 0.00 0.00 0.00 0.00 0.00 0.00 0.00 0.00 0.00 0.00 0.01 0.00 0.00 0.00 0.00 0.00 0.00 0.00 0.00 0.00 0.00 0.00 0.00 0.00 0.00 0.00 0.00 0.00 0.00 0.00 0.00 0.00 0.00
0.00 0.00 0.00 0.00 0.00 0.00 0.00 0.00 0.00 0.00 0.00 0.00 0.00 0.00 0.00 0.00 0.00 0.00 0.00 0.00 0.00 0.00 0.00 0.00 0.00 0.00 0.00 0.00 0.00 0.00 0.00 0.00 0.00 0.01 0.00 0.00 0.00 0.00 0.00 0.00 0.00 0.00 0.00
0.00 0.00 0.00 0.00 0.00 0.00 0.00 0.00 0.00 0.00 0.00 0.00 0.00 0.00 0.00 0.00 0.00 0.00 0.00 0.00 0.00 0.00 0.00 0.00 0.00 0.00 0.00 0.00 0.00 0.00 0.00 0.00 0.00 0.00 0.00 0.00 0.00 0.00 0.00 0.00 0.00 0.00 0.00
0.05 0.02 0.00 0.00 0.00 0.00 0.00 0.00 0.00 0.00 0.00 0.00 0.00 0.00 0.00 0.00 0.00 0.00 0.00 0.00 0.00 0.00 0.00 0.00 0.00 0.00 0.00 0.00 0.00 0.00 0.00 0.00 0.00 0.00 0.00 0.00 0.00 0.00 0.00 0.00 0.00 0.00 0.00
0.05 0.13 0.08 0.02 0.01 0.00 0.00 0.00 0.00 0.00 0.00 0.00 0.00 0.00 0.00 0.00 0.00 0.00 0.00 0.00 0.00 0.00 0.00 0.00 0.00 0.00 0.00 0.00 0.00 0.00 0.00 0.00 0.00 0.00 0.00 0.00 0.00 0.00 0.00 0.00 0.00 0.00 0.00
0.00 0.03 0.13 0.04 0.02 0.00 0.00 0.00 0.00 0.00 0.00 0.00 0.00 0.00 0.00 0.00 0.00 0.00 0.00 0.00 0.00 0.00 0.00 0.00 0.00 0.00 0.00 0.00 0.00 0.00 0.00 0.00 0.00 0.00 0.00 0.00 0.00 0.00 0.00 0.00 0.00 0.00 0.00
0.00 0.00 0.01 0.04 0.02 0.00 0.00 0.00 0.00 0.00 0.00 0.00 0.00 0.00 0.00 0.00 0.00 0.00 0.00 0.00 0.00 0.00 0.00 0.00 0.00 0.00 0.00 0.00 0.00 0.00 0.00 0.00 0.00 0.00 0.00 0.00 0.00 0.00 0.00 0.00 0.00 0.00 0.00
0.00 0.00 0.00 0.01 0.01 0.01 0.00 0.00 0.00 0.00 0.00 0.00 0.00 0.00 0.00 0.00 0.00 0.00 0.00 0.00 0.00 0.00 0.00 0.00 0.00 0.00 0.00 0.00 0.00 0.00 0.00 0.00 0.00 0.00 0.00 0.00 0.00 0.00 0.00 0.00 0.00 0.00 0.00
0.00 0.00 0.00 0.00 0.02 0.00 0.00 0.00 0.00 0.00 0.00 0.00 0.00 0.00 0.00 0.00 0.00 0.00 0.00 0.00 0.00 0.00 0.00 0.00 0.00 0.00 0.00 0.00 0.00 0.00 0.00 0.00 0.00 0.00 0.00 0.00 0.00 0.00 0.00 0.00 0.00 0.00 0.00
0.01 0.02 0.01 0.00 0.00 0.00 0.01 0.01 0.00 0.00 0.00 0.00 0.00 0.00 0.00 0.00 0.00 0.00 0.00 0.00 0.00 0.00 0.00 0.00 0.00 0.00 0.00 0.00 0.00 0.00 0.00 0.00 0.00 0.00 0.00 0.00 0.00 0.00 0.00 0.00 0.00 0.00 0.00
0.07 0.06 0.07 0.02 0.02 0.00 0.00 0.01 0.00 0.00 0.00 0.00 0.00 0.00 0.00 0.00 0.00 0.00 0.00 0.00 0.00 0.00 0.00 0.00 0.00 0.00 0.00 0.00 0.00 0.00 0.00 0.00 0.00 0.00 0.00 0.00 0.00 0.00 0.00 0.00 0.00 0.00 0.00
0.11 0.06 0.04 0.10 0.11 0.08 0.07 0.06 0.03 0.01 0.00 0.00 0.00 0.00 0.00 0.00 0.00 0.00 0.00 0.00 0.00 0.00 0.00 0.00 0.00 0.00 0.00 0.00 0.00 0.00 0.00 0.00 0.00 0.00 0.00 0.00 0.00 0.00 0.00 0.00 0.00 0.00 0.00
0.09 0.07 0.06 0.04 0.03 0.08 0.09 0.12 0.15 0.10 0.03 0.00 0.00 0.00 0.00 0.00 0.00 0.00 0.00 0.00 0.00 0.00 0.00 0.00 0.00 0.00 0.00 0.00 0.00 0.00 0.00 0.00 0.00 0.00 0.00 0.00 0.00 0.00 0.00 0.00 0.00 0.00 0.00
0.06 0.05 0.03 0.05 0.03 0.01 0.03 0.08 0.08 0.09 0.05 0.00 0.00 0.00 0.00 0.00 0.00 0.00 0.00 0.00 0.00 0.00 0.00 0.00 0.00 0.00 0.00 0.00 0.00 0.00 0.00 0.00 0.00 0.00 0.00 0.00 0.00 0.00 0.00 0.00 0.00 0.00 0.00
0.00 0.00 0.01 0.01 0.01 0.01 0.05 0.04 0.05 0.07 0.01 0.00 0.00 0.00 0.00 0.00 0.00 0.00 0.00 0.00 0.00 0.00 0.00 0.00 0.00 0.00 0.00 0.00 0.00 0.00 0.00 0.00 0.00 0.00 0.00 0.00 0.00 0.00 0.00 0.00 0.00 0.00 0.00
0.00 0.00 0.00 0.00 0.00 0.02 0.04 0.13 0.07 0.02 0.06 0.02 0.00 0.00 0.00 0.00 0.00 0.00 0.00 0.00 0.00 0.00 0.00 0.00 0.00 0.00 0.00 0.00 0.00 0.00 0.00 0.00 0.00 0.00 0.00 0.00 0.00 0.00 0.00 0.00 0.00 0.00 0.00
0.00 0.00 0.00 0.00 0.00 0.01 0.02 0.04 0.07 0.04 0.02 0.00 0.03 0.01 0.00 0.00 0.00 0.00 0.00 0.00 0.00 0.00 0.00 0.00 0.00 0.00 0.00 0.00 0.00 0.00 0.00 0.00 0.00 0.00 0.00 0.00 0.00 0.00 0.00 0.00 0.00 0.00 0.00
0.00 0.00 0.00 0.01 0.00 0.01 0.01 0.01 0.01 0.01 0.00 0.00 0.00 0.02 0.00 0.00 0.00 0.00 0.00 0.00 0.00 0.00 0.00 0.00 0.00 0.00 0.00 0.00 0.00 0.00 0.00 0.00 0.00 0.00 0.00 0.00 0.00 0.00 0.00 0.00 0.00 0.00 0.00
0.00 0.00 0.00 0.01 0.00 0.00 0.00 0.00 0.01 0.00 0.00 0.00 0.00 0.00 0.00 0.00 0.00 0.00 0.00 0.00 0.00 0.00 0.00 0.00 0.00 0.00 0.00 0.00 0.00 0.00 0.00 0.00 0.00 0.00 0.00 0.00 0.00 0.00 0.00 0.00 0.00 0.00 0.00
0.00 0.00 0.00 0.00 0.00 0.00 0.00 0.00 0.00 0.00 0.00 0.00 0.00 0.00 0.00 0.00 0.00 0.00 0.00 0.00 0.00 0.00 0.00 0.00 0.00 0.00 0.00 0.00 0.00 0.00 0.00 0.00 0.00 0.00 0.00 0.00 0.00 0.00 0.00 0.00 0.00 0.00 0.00
0.00 0.00 0.00 0.00 0.00 0.00 0.00 0.01 0.01 0.02 0.02 0.01 0.00 0.00 0.00 0.00 0.00 0.00 0.00 0.00 0.00 0.00 0.00 0.00 0.00 0.00 0.00 0.00 0.00 0.00 0.00 0.00 0.00 0.00 0.00 0.00 0.00 0.00 0.00 0.00 0.00 0.00 0.00
MSLP
1009.09 1009.52 1010.20 1011.03 1012.03 1012.94 1013.76 1014.47 1015.20 1015.64 1016.19 1016.78 1017.08 1017.47 1017.87 1018.17 1018.18 1018.04 1018.22 1018.52 1018.82 1019.05 1019.45 1019.76 1019.88 1019.83 1020.32 1020.62 1020.57 1020.90 1021.09 1021.21 1021.19 1021.73 1021.97 1021.63 1021.50 1021.44 1021.54 1021.37 1021.39 1021.63 1021.76
1008.96 1009.23 1010.03 1010.77 1011.77 1012.81 1013.59 1014.39 1015.02 1015.57 1016.09 1016.67 1016.88 1017.27 1017.49 1017.78 1017.97 1018.14 1018.34 1018.45 1018.78 1019.03 1019.25 1019.51 1019.76 1019.91 1020.34 1020.49 1020.51 1020.88 1021.33 1021.48 1021.37 1021.75 1021.87 1022.10 1021.74 1021.26 1021.39 1021.07 1021.30 1021.38 1021.47
1008.48 1009.09 1009.73 1010.48 1011.54 1012.56 1013.35 1014.11 1014.72 1015.41 1015.91 1016.41 1016.89 1017.20 1017.39 1017.70 1018.25 1018.34 1018.47 1018.45 1018.63 1018.81 1019.01 1019.37 1019.69 1019.86 1020.05 1020.52 1020.59 1020.78 1021.13 1021.59 1021.39 1021.09 1021.39 1022.01 1022.21 1021.79 1021.53 1021.36 1021.29 1021.30 1021.46
1008.04 1008.72 1009.39 1010.07 1010.97 1012.09 1012.89 1013.70 1014.45 1015.22 1015.71 1016.09 1016.64 1017.03 1017.36 1017.65 1017.88 1017.97 1018.34 1018.36 1018.46 1018.67 1018.86 1019.13 1019.49 1019.93 1020.24 1020.48 1020.55 1020.45 1020.91 1021.49 1021.67 1021.45 1021.11 1021.17 1021.43 1021.78 1022.09 1021.49 1021.33 1021.15 1021.20
1007.22 1007.92 1008.59 1009.47 1010.61 1011.70 1012.59 1013.23 1014.09 1014.97 1015.45 1015.81 1016.16 1016.67 1017.02 1017.01 1017.20 1017.60 1017.94 1018.24 1018.37 1018.39 1018.66 1019.00 1019.23 1019.67 1020.11 1020.31 1020.59 1020.64 1020.85 1021.19 1021.53 1021.62 1021.59 1021.35 1021.27 1021.55 1021.79 1022.13 1021.80 1021.54 1021.11
1006.57 1007.09 1007.93 1009.11 1010.19 1011.45 1012.31 1013.01 1013.64 1014.43 1015.01 1015.45 1015.77 1016.20 1016.57 1016.75 1017.05 1017.38 1017.83 1017.97 1018.34 1018.42 1018.39 1018.71 1019.05 1019.38 1019.78 1020.17 1020.40 1020.47 1020.74 1020.97 1021.14 1021.41 1021.49 1021.49 1021.47 1021.61 1021.63 1021.83 1021.78 1021.64 1020.99
1005.60 1006.49 1007.56 1008.70 1009.77 1010.91 1011.61 1012.49 1013.17 1013.81 1014.35 1014.99 1015.45 1015.75 1016.02 1016.29 1016.70 1016.99 1017.18 1017.51 1018.03 1018.27 1018.38 1018.48 1018.99 1019.26 1019.57 1019.87 1020.10 1020.52 1020.73 1020.89 1020.99 1021.17 1021.21 1021.17 1021.15 1021.01 1021.07 1021.38 1021.63 1021.75 1021.23
1005.97 1006.26 1007.00 1008.05 1008.88 1010.00 1010.85 1011.60 1012.46 1013.10 1013.69 1014.31 1014.91 1015.37 1015.52 1015.82 1016.12 1016.57 1016.78 1017.01 1017.36 1017.48 1017.59 1018.01 1018.50 1018.89 1019.22 1019.57 1019.89 1020.25 1020.47 1020.69 1020.86 1020.90 1021.09 1020.95 1020.86 1020.99 1020.85 1020.96 1021.27 1021.69 1021.60
1006.15 1006.78 1006.52 1007.38 1008.27 1009.36 1010.21 1010.92 1011.84 1012.50 1013.03 1013.62 1014.23 1014.83 1015.22 1015.33 1015.69 1016.01 1016.36 1016.61 1016.82 1017.05 1017.29 1017.54 1018.21 1018.52 1018.86 1019.15 1019.52 1020.09 1020.27 1020.45 1020.66 1020.78 1020.91 1020.93 1020.73 1020.69 1020.73 1020.71 1020.75 1021.40 1021.99
1005.23 1007.58 1008.85 1008.22 1008.07 1008.19 1009.41 1010.51 1011.31 1011.88 1012.40 1013.05 1013.72 1014.15 1014.55 1014.86 1015.19 1015.57 1015.85 1016.06 1016.21 1016.51 1016.79 1017.37 1017.82 1018.27 1018.50 1018.78 1019.39 1019.85 1020.10 1020.37 1020.45 1020.49 1020.69 1020.76 1020.62 1020.71 1020.77 1020.86 1020.47 1020.87 1021.36
1004.81 1007.84 1009.26 1008.65 1008.65 1008.83 1008.81 1009.32 1010.24 1011.15 1011.88 1012.38 1012.98 1013.61 1014.10 1014.48 1014.81 1015.11 1015.33 1015.59 1015.73 1016.13 1016.55 1017.06 1017.58 1018.05 1018.39 1018.69 1019.19 1019.55 1019.81 1020.13 1020.32 1020.38 1020.57 1020.65 1020.55 1020.55 1020.69 1020.73 1020.74 1020.85 1020.99
1004.59 1005.45 1005.68 1007.10 1007.49 1007.61 1007.74 1008.03 1008.91 1009.97 1010.52 1011.34 1012.00 1012.73 1013.35 1013.91 1014.26 1014.56 1014.84 1015.18 1015.40 1015.81 1016.27 1016.67 1017.21 1017.67 1018.03 1018.28 1018.71 1019.15 1019.39 1019.74 1020.04 1020.10 1020.28 1020.38 1020.47 1020.54 1020.48 1020.63 1020.70 1020.84 1020.77
1004.60 1005.20 1005.03 1004.57 1005.38 1006.42 1006.99 1007.00 1007.41 1008.53 1009.62 1010.42 1011.23 1011.86 1012.47 1012.97 1013.28 1013.72 1014.15 1014.48 1014.96 1015.31 1015.89 1016.25 1016.67 1017.11 1017.50 1017.82 1018.19 1018.60 1018.95 1019.21 1019.39 1019.49 1019.73 1019.88 1020.08 1020.32 1020.32 1020.28 1020.44 1020.48 1020.48
1004.12 1004.61 1004.80 1003.02 1003.20 1004.42 1005.61 1005.90 1006.60 1007.32 1008.61 1009.31 1010.12 1010.86 1011.43 1011.93 1012.47 1012.96 1013.53 1013.99 1014.27 1014.76 1015.16 1015.61 1016.02 1016.33 1016.75 1017.23 1017.63 1018.05 1018.41 1018.65 1018.89 1019.04 1019.16 1019.27 1019.49 1019.65 1019.81 1019.99 1020.07 1020.15 1020.30
1005.35 1005.48 1003.58 1004.18 1004.65 1004.50 1004.78 1004.68 1005.41 1006.22 1007.19 1008.33 1009.13 1009.65 1010.50 1011.31 1011.96 1012.43 1012.85 1013.43 1013.80 1014.04 1014.45 1014.97 1015.45 1015.82 1016.24 1016.68 1017.12 1017.52 1017.90 1018.16 1018.35 1018.45 1018.59 1018.67 1018.74 1018.91 1019.11 1019.37 1019.55 1019.78 1020.06
1007.23 1007.71 1006.55 1005.23 1004.57 1004.09 1003.21 1004.58 1004.84 1005.34 1006.20 1007.01 1008.04 1009.11 1009.75 1010.31 1010.78 1011.46 1011.99 1012.60 1013.09 1013.41 1013.82 1014.29 1014.75 1015.24 1015.53 1015.89 1016.39 1016.85 1017.28 1017.51 1017.71 1017.91 1017.95 1018.01 1018.18 1018.27 1018.46 1018.67 1018.81 1018.92 1019.27
1008.55 1008.84 1006.84 1005.12 1005.55 1005.54 1004.15 1004.47 1006.22 1005.64 1005.75 1005.95 1006.88 1007.72 1008.58 1009.28 1009.83 1010.54 1011.21 1011.70 1012.18 1012.81 1013.07 1013.44 1013.97 1014.39 1014.78 1015.12 1015.59 1016.06 1016.49 1016.85 1017.04 1017.18 1017.37 1017.53 1017.61 1017.73 1017.85 1017.97 1018.05 1018.07 1018.07
1008.06 1008.02 1008.20 1008.21 1007.98 1007.32 1006.44 1005.73 1006.20 1005.43 1007.08 1006.29 1005.83 1006.57 1007.30 1008.10 1008.95 1009.62 1010.19 1010.82 1011.32 1011.79 1012.22 1012.65 1013.15 1013.68 1014.02 1014.47 1014.90 1015.29 1015.77 1015.99 1016.14 1016.30 1016.50 1016.72 1016.89 1017.02 1017.26 1017.45 1017.48 1017.34 1017.14
1008.81 1008.77 1008.41 1007.73 1006.94 1006.34 1005.19 1004.62 1003.75 1004.67 1006.10 1006.00 1005.70 1005.55 1006.20 1007.00 1007.81 1008.46 1008.99 1009.63 1010.29 1010.77 1011.12 1011.63 1012.20 1012.68 1013.12 1013.63 1014.17 1014.71 1015.22 1015.23 1015.24 1015.34 1015.58 1015.85 1016.12 1016.28 1016.54 1016.82 1017.05 1016.80 1016.37
1009.20 1009.31 1008.37 1008.86 1008.29 1007.21 1006.57 1005.83 1005.39 1004.55 1004.36 1004.23 1004.61 1004.60 1005.24 1005.91 1006.47 1007.25 1007.93 1008.54 1009.10 1009.56 1010.28 1010.71 1011.12 1011.65 1012.17 1012.73 1013.20 1013.83 1014.33 1014.61 1014.55 1014.69 1014.80 1014.91 1015.19 1015.46 1015.74 1016.11 1016.22 1016.22 1015.78
1009.91 1010.30 1009.79 1008.93 1008.12 1008.48 1007.70 1006.23 1005.23 1004.16 1003.99 1003.94 1003.63 1003.87 1004.04 1004.62 1005.28 1006.14 1006.92 1007.53 1008.20 1008.78 1009.27 1009.79 1010.24 1010.80 1011.30 1011.72 1012.24 1012.73 1013.27 1013.39 1013.58 1013.73 1013.81 1013.97 1014.28 1014.54 1014.85 1015.11 1015.41 1015.28 1015.03
1011.12 1010.68 1009.89 1008.47 1008.14 1007.94 1007.96 1007.88 1006.42 1005.62 1004.74 1003.20 1002.97 1003.17 1003.37 1003.98 1004.55 1005.05 1005.87 1006.58 1007.29 1007.86 1008.36 1008.94 1009.39 1009.65 1010.05 1010.53 1011.03 1011.52 1012.13 1012.18 1012.53 1012.66 1012.69 1012.87 1013.27 1013.59 1013.84 1013.94 1014.11 1014.17 1014.35
1011.59 1010.83 1010.11 1009.60 1009.04 1008.76 1008.03 1006.89 1005.71 1005.05 1004.14 1003.63 1002.51 1002.66 1003.03 1003.16 1003.49 1004.26 1004.98 1005.77 1006.35 1006.86 1007.34 1007.88 1008.25 1008.50 1008.87 1009.27 1009.73 1010.15 1010.68 1011.16 1011.63 1011.65 1011.71 1012.02 1012.30 1012.51 1012.79 1012.98 1013.14 1013.45 1014.14
1011.83 1011.77 1011.56 1010.46 1009.41 1009.85 1008.81 1007.99 1006.90 1005.88 1004.90 1003.66 1002.25 1001.83 1002.07 1002.36 1002.60 1003.23 1003.91 1004.49 1005.04 1005.57 1006.20 1006.71 1006.99 1007.43 1007.89 1008.14 1008.52 1009.49 1010.11 1010.25 1010.79 1010.78 1011.07 1011.27 1011.61 1011.90 1012.07 1012.26 1012.42 1012.86 1012.91
1012.02 1011.79 1011.25 1011.12 1009.86 1009.76 1009.56 1008.89 1007.74 1006.38 1005.05 1003.62 1002.09 1001.45 1001.18 1001.54 1001.89 1002.23 1002.73 1003.34 1003.55 1004.05 1004.80 1005.23 1005.93 1006.37 1006.68 1006.63 1007.00 1007.84 1008.79 1009.03 1009.25 1009.82 1010.49 1011.07 1011.32 1011.38 1011.43 1011.47 1011.62 1011.96 1012.17
1012.24 1011.55 1010.86 1010.27 1009.39 1010.05 1010.44 1009.69 1008.31 1007.10 1005.66 1004.13 1002.54 1001.05 1000.63 1000.79 1001.09 1001.74 1003.08 1003.43 1003.33 1003.41 1003.80 1004.38 1004.78 1005.33 1005.69 1005.99 1006.46 1006.75 1007.09 1007.30 1007.77 1009.20 1009.37 1009.53 1009.70 1009.87 1010.00 1010.29 1010.55 1010.79 1010.99
Thickness
5808 5809 5811 5810 5806 5803 5800 5797 5796 5796 5793 5790 5788 5787 5785 5784 5785 5787 5787 5785 5783 5780 5779 5778 5777 5780 5778 5775 5777 5774 5772 5772 5775 5767 5767 5770 5773 5774 5773 5773 5773 5771 5769
5807 5810 5810 5811 5806 5801 5800 5798 5798 5798 5796 5793 5794 5792 5792 5791 5789 5787 5786 5786 5783 5783 5783 5783 5782 5781 5780 5779 5780 5776 5772 5772 5775 5767 5765 5757 5764 5776 5777 5779 5778 5776 5775
5809 5808 5808 5811 5807 5802 5800 5799 5800 5799 5799 5798 5796 5794 5795 5793 5788 5787 5787 5788 5787 5786 5786 5785 5785 5785 5783 5780 5781 5780 5776 5769 5775 5779 5771 5757 5752 5763 5776 5779 5779 5780 5778
5816 5813 5809 5811 5811 5805 5805 5803 5802 5800 5800 5801 5797 5794 5792 5788 5792 5793 5791 5792 5790 5789 5789 5788 5787 5785 5784 5783 5782 5783 5780 5774 5770 5776 5781 5780 5776 5764 5759 5776 5780 5782 5781
5819 5818 5816 5814 5813 5809 5806 5806 5803 5801 5802 5802 5801 5798 5796 5799 5799 5799 5797 5796 5793 5793 5792 5791 5791 5789 5787 5785 5784 5783 5782 5779 5776 5774 5776 5779 5780 5779 5769 5761 5770 5779 5783
5826 5826 5824 5818 5812 5808 5807 5806 5806 5804 5805 5804 5804 5801 5800 5801 5801 5801 5798 5798 5797 5797 5797 5795 5794 5792 5789 5788 5787 5785 5785 5783 5781 5779 5780 5778 5776 5775 5775 5771 5772 5773 5784
5838 5828 5822 5815 5813 5808 5808 5806 5806 5805 5808 5807 5806 5805 5805 5805 5804 5803 5805 5802 5800 5799 5799 5799 5797 5795 5792 5790 5789 5787 5786 5785 5783 5782 5783 5784 5786 5788 5787 5781 5777 5775 5784
5825 5830 5823 5820 5817 5812 5810 5810 5807 5807 5810 5810 5808 5808 5809 5809 5809 5807 5808 5808 5807 5808 5806 5803 5802 5799 5796 5793 5791 5790 5788 5787 5787 5787 5786 5787 5790 5790 5791 5787 5782 5774 5777
5814 5817 5823 5823 5820 5815 5812 5810 5807 5808 5810 5810 5810 5809 5810 5812 5811 5811 5812 5811 5812 5811 5809 5807 5804 5802 5800 5798 5796 5793 5791 5790 5790 5789 5789 5789 5792 5794 5794 5794 5793 5783 5770
5820 5802 5800 5810 5817 5821 5818 5813 5809 5807 5809 5809 5811 5812 5813 5814 5814 5814 5813 5814 5816 5815 5813 5810 5808 5806 5804 5802 5799 5796 5795 5792 5792 5793 5791 5792 5794 5794 5794 5794 5798 5794 5786
5812 5787 5790 5805 5812 5814 5814 5817 5815 5809 5808 5811 5811 5811 5812 5814 5815 5815 5817 5817 5819 5817 5816 5814 5810 5808 5806 5805 5801 5799 5798 5795 5793 5794 5792 5792 5795 5794 5795 5796 5796 5795 5795
5804 5801 5810 5806 5810 5815 5826 5821 5820 5816 5816 5813 5814 5812 5813 5814 5815 5815 5817 5818 5818 5819 5815 5816 5813 5810 5809 5809 5805 5802 5803 5799 5795 5795 5794 5794 5795 5794 5796 5796 5796 5795 5797
5804 5804 5806 5817 5810 5818 5822 5826 5828 5823 5820 5817 5814 5814 5814 5816 5819 5819 5818 5819 5818 5817 5817 5815 5814 5812 5811 5810 5810 5807 5804 5803 5801 5800 5798 5797 5796 5795 5796 5798 5798 5799 5800
5805 5805 5810 5824 5833 5835 5828 5832 5825 5829 5823 5823 5818 5815 5816 5818 5818 5820 5819 5818 5819 5817 5817 5817 5816 5816 5815 5813 5812 5810 5807 5805 5804 5803 5802 5801 5799 5799 5799 5799 5800 5801 5800
5789 5789 5815 5808 5813 5826 5827 5839 5830 5828 5831 5825 5822 5820 5817 5816 5815 5817 5820 5818 5818 5819 5818 5817 5816 5816 5816 5815 5812 5811 5809 5807 5805 5805 5804 5805 5805 5805 5805 5803 5802 5801 5799
5754 5756 5773 5788 5805 5820 5836 5834 5831 5828 5832 5830 5825 5821 5819 5817 5819 5819 5820 5819 5818 5819 5819 5818 5817 5815 5817 5817 5815 5813 5810 5810 5807 5804 5805 5807 5807 5806 5806 5806 5807 5807 5802
5740 5737 5753 5780 5789 5800 5815 5817 5804 5814 5825 5833 5830 5828 5824 5820 5820 5819 5818 5819 5820 5817 5819 5820 5819 5818 5818 5817 5816 5814 5813 5811 5809 5807 5806 5806 5809 5807 5807 5807 5807 5809 5809
5735 5741 5742 5750 5767 5773 5786 5779 5766 5808 5800 5815 5829 5832 5831 5826 5822 5821 5820 5820 5820 5820 5819 5819 5820 5818 5820 5817 5815 5813 5813 5812 5812 5811 5810 5809 5809 5809 5806 5805 5807 5809 5812
5721 5728 5738 5747 5760 5778 5780 5794 5803 5810 5805 5815 5822 5832 5835 5830 5826 5823 5823 5822 5820 5820 5822 5821 5820 5820 5821 5818 5815 5811 5810 5812 5813 5815 5814 5813 5811 5811 5809 5807 5804 5807 5812
5712 5713 5731 5731 5738 5751 5766 5778 5790 5805 5817 5828 5829 5832 5836 5834 5832 5828 5825 5824 5824 5823 5820 5821 5822 5822 5821 5819 5816 5812 5813 5810 5813 5814 5815 5815 5815 5813 5811 5808 5807 5805 5810
5699 5700 5710 5720 5733 5732 5745 5773 5787 5805 5814 5820 5831 5832 5838 5838 5837 5832 5827 5826 5823 5821 5821 5820 5821 5820 5821 5821 5817 5814 5816 5816 5814 5815 5816 5819 5817 5815 5813 5811 5810 5810 5815
5680 5690 5699 5714 5725 5733 5736 5749 5752 5783 5802 5818 5822 5830 5835 5836 5837 5835 5830 5827 5822 5820 5819 5817 5817 5822 5824 5822 5819 5817 5815 5820 5818 5817 5820 5822 5819 5817 5816 5815 5815 5815 5814
5658 5673 5684 5698 5711 5721 5732 5750 5767 5778 5792 5806 5821 5823 5829 5834 5839 5834 5830 5825 5823 5820 5819 5817 5817 5820 5823 5825 5822 5819 5818 5817 5819 5821 5822 5821 5819 5818 5817 5817 5816 5814 5811
5645 5650 5658 5675 5695 5700 5716 5731 5749 5761 5775 5793 5814 5826 5828 5832 5837 5837 5834 5829 5826 5824 5821 5820 5819 5819 5821 5824 5827 5820 5816 5816 5816 5819 5817 5816 5816 5817 5818 5818 5815 5814 5816
5626 5636 5653 5659 5679 5689 5699 5715 5732 5750 5765 5785 5805 5816 5827 5828 5832 5836 5835 5833 5836 5834 5827 5827 5823 5819 5820 5829 5830 5825 5819 5821 5821 5816 5813 5809 5809 5811 5813 5815 5816 5814 5814
5610 5626 5645 5660 5677 5678 5680 5694 5715 5732 5751 5770 5789 5809 5818 5823 5827 5826 5821 5821 5827 5830 5831 5828 5829 5826 5826 5827 5824 5824 5824 5823 5820 5812 5811 5810 5812 5812 5814 5813 5813 5814 5814